Volver al catálogo

SIRION PATHFINDER-2

ActivoCienciaSSO
NORAD 43759·PAYLOAD·🇺🇸 United States

Lanzado Dec 3, 2018 desde Vandenberg Space Force Base

Loading…

Próximos Pases (próximas 24 horas)

TLE

ActualizadoSource: Space-Track

Época: Sep 14, 2026, 21:10 UTC

1 43759U 18099B   26257.88237525  .00004027  00000-0  21785-3 0  9996
2 43759  97.4164 304.8062 0008356   0.2662 359.8574 15.15195075426206

Sigue SIRION PATHFINDER-2 en tiempo real con AllMySat

Download on the App Store